GFSSGP_700_spd_057.txt.gz
Wind_Speed
7 6 5 7 7 12 21 22 14 9 16 15 10 15 12 11 4 1 5 8 9 15 8 8 11 12 9 14 18 22 25 28 29 29 28 29 28 27 28 26 24 24 22 20 19 18 17 16 16
9 5 3 5 11 20 19 17 11 11 9 10 12 14 12 11 7 8 7 12 10 7 11 9 12 14 12 17 20 24 27 29 30 29 29 27 27 26 25 23 21 20 19 17 16 15 13 13 13
12 7 3 8 17 23 19 5 10 12 6 7 9 16 15 15 11 21 11 16 15 8 13 13 14 15 15 21 21 24 28 29 29 28 26 24 23 22 20 19 17 16 14 13 12 12 11 10 10
10 8 9 14 17 19 16 7 5 9 5 8 8 8 13 14 24 30 27 23 14 11 16 17 16 17 16 23 26 26 27 28 27 25 23 21 20 18 16 15 13 12 11 11 10 10 9 8 9
14 11 19 21 21 21 13 20 14 8 12 9 9 11 10 8 25 34 31 26 21 16 19 22 19 20 19 24 29 30 28 26 24 22 21 18 16 15 12 11 10 9 9 8 8 8 8 9 9
17 15 24 27 26 23 21 14 14 14 11 11 13 13 11 11 17 36 37 32 28 22 24 26 23 24 22 24 28 30 30 27 24 22 19 16 13 11 9 8 7 7 7 7 7 7 7 9 10
24 24 29 30 27 22 19 16 15 15 13 11 14 14 11 8 19 24 33 33 27 24 30 29 27 26 27 26 28 31 31 29 26 22 19 16 12 9 7 5 4 4 5 7 8 9 10 11 12
26 29 35 35 32 29 19 17 15 16 17 10 9 9 13 11 18 9 23 25 24 22 32 33 30 30 31 30 30 30 31 29 27 23 20 16 12 9 6 3 2 3 5 7 9 10 11 12 13
25 34 41 39 34 32 25 23 20 17 19 19 13 15 11 11 8 9 6 20 22 20 28 36 35 33 34 33 33 31 31 29 27 24 21 17 14 10 6 3 1 4 7 8 10 11 13 14 15
30 35 41 34 33 32 31 29 23 21 22 23 18 18 13 12 11 10 9 5 18 22 26 38 40 37 38 36 35 33 31 30 29 26 22 18 14 10 7 5 3 5 8 10 12 13 15 16 16
29 38 31 32 34 32 31 31 22 25 23 24 22 21 21 19 12 10 11 9 6 20 25 28 45 42 42 39 37 36 34 32 29 26 23 18 14 11 9 6 5 7 10 12 14 15 16 17 18
32 31 29 31 29 31 33 27 28 31 28 23 25 30 30 29 20 12 11 11 13 13 27 26 41 45 42 39 38 37 35 32 29 26 23 20 16 13 11 9 8 8 12 11 15 16 15 18 19
26 29 26 28 29 29 27 33 31 32 28 22 30 33 44 37 29 25 11 15 10 20 19 31 45 45 40 40 42 38 37 35 31 28 25 22 18 16 13 13 11 12 11 14 12 16 18 20 21
22 22 28 26 25 26 31 32 31 35 29 28 30 32 29 35 30 28 18 14 19 18 22 26 38 46 48 42 41 42 40 38 35 31 28 23 22 19 16 15 13 12 7 11 18 18 18 22 23
18 23 21 27 26 26 25 34 36 31 30 30 27 26 34 40 31 25 18 22 24 18 19 26 39 48 49 49 50 45 45 42 36 32 30 27 23 23 18 17 15 12 11 13 18 22 21 24 26
15 19 23 23 26 24 24 37 28 26 29 31 27 27 28 33 30 25 31 30 27 22 18 23 43 42 48 49 48 47 44 44 38 35 33 30 28 26 22 20 19 18 18 22 22 25 24 29 29
18 22 23 18 17 18 24 24 17 23 20 23 23 23 21 25 25 25 29 35 43 23 19 19 36 45 48 49 47 48 49 46 38 38 39 36 32 30 25 23 19 18 19 23 31 30 23 26 29
18 24 21 15 13 15 22 25 20 18 20 20 22 22 21 23 21 20 23 44 47 42 33 31 28 54 42 31 49 51 51 47 42 38 44 37 40 31 27 25 26 24 25 32 31 26 28 29 31
15 16 14 11 17 14 20 24 25 25 27 25 24 23 24 22 20 20 25 40 34 36 43 32 32 23 43 58 40 34 48 57 48 42 42 42 39 38 38 40 37 35 35 38 30 28 28 28 32
15 17 19 18 18 19 21 27 27 28 30 29 27 27 24 21 22 24 35 37 33 34 37 30 32 29 28 53 62 48 42 54 55 49 46 43 46 45 49 44 39 37 35 36 33 32 36 35 35
16 18 18 17 16 18 23 30 31 30 29 28 27 26 25 23 24 22 21 24 34 41 46 41 45 33 28 28 40 49 56 53 54 49 42 52 43 43 45 44 44 39 42 37 30 35 31 36 38
16 13 16 16 16 19 6 17 10 10 13 14 15 15 15 18 20 23 26 27 27 33 41 44 41 46 36 37 40 40 64 55 60 62 54 52 56 51 53 49 48 42 34 35 35 32 34 33 40
16 13 15 17 20 21 24 18 21 21 16 16 13 11 11 12 15 15 15 23 23 29 30 33 40 49 41 49 37 34 32 42 43 48 50 49 52 56 48 44 39 41 35 35 31 33 35 38 38
16 17 18 21 24 22 26 25 22 19 14 15 13 6 9 11 12 15 18 19 23 27 28 32 36 40 45 45 50 44 36 35 40 43 44 37 43 57 53 38 46 42 35 33 31 36 37 37 39
17 17 17 20 18 15 14 8 17 6 8 10 11 11 11 12 12 11 12 12 14 18 25 31 32 39 42 41 43 46 42 49 50 45 43 46 47 55 41 39 38 36 35 33 36 38 39 38 39
22 21 21 17 13 12 16 9 6 15 14 12 10 10 11 12 10 11 11 12 12 14 17 27 33 36 39 44 45 47 45 52 63 54 45 39 39 35 33 36 39 33 36 35 38 40 39 42 40
24 25 18 22 27 22 29 27 20 15 15 10 8 9 6 12 12 11 13 14 15 16 19 25 28 34 38 41 44 49 53 50 60 56 47 44 42 40 41 44 40 36 38 37 40 42 42 45 42
23 20 10 16 16 19 22 27 24 20 18 12 8 7 9 9 12 14 15 19 22 24 25 30 33 29 32 35 42 46 49 53 52 49 44 47 48 47 46 44 43 40 41 43 45 43 44 46 42
23 29 28 25 18 6 12 12 4 8 8 5 8 10 11 14 17 21 23 24 25 26 27 28 29 28 32 33 36 39 48 49 51 52 47 44 46 52 51 50 50 48 46 48 47 41 44 44 39
25 25 25 23 27 28 28 31 23 10 9 7 11 13 16 22 24 23 22 23 23 24 25 29 32 30 30 35 35 37 40 47 51 53 54 47 47 47 49 48 49 50 50 50 44 41 42 43 39

GFSSGP_700_spd_060.txt.gz
Wind_Speed
9 7 5 9 7 10 20 21 21 11 11 9 6 7 1 9 1 2 10 3 13 6 8 6 5 6 5 9 13 17 22 25 27 28 29 28 28 27 26 25 24 22 21 19 18 17 17 17 16
11 7 2 7 14 19 19 16 21 12 9 11 8 6 10 5 21 20 13 10 8 7 9 8 6 7 6 12 15 19 25 27 29 30 30 30 28 26 24 23 21 19 17 16 15 14 14 14 14
12 8 5 7 16 22 20 8 7 3 4 11 10 7 8 2 11 16 14 13 16 6 10 11 8 10 8 14 19 22 27 29 30 30 29 27 25 23 21 19 17 15 13 12 12 11 12 12 11
12 7 13 14 18 20 23 12 10 5 2 4 7 7 12 11 14 17 19 18 20 9 8 15 11 12 11 14 22 26 29 30 29 28 26 24 23 20 18 16 14 12 10 10 10 10 10 11 11
14 12 19 24 21 22 17 14 5 3 3 0 9 12 10 15 19 24 25 24 15 13 7 17 15 14 15 16 22 30 31 30 28 26 24 22 20 17 15 13 11 9 8 8 8 8 9 10 11
16 17 24 27 25 23 22 21 16 13 9 7 10 13 11 13 20 23 31 28 15 22 12 17 20 17 18 19 22 29 32 32 29 26 24 21 18 15 12 11 9 8 7 7 6 7 8 10 11
22 22 31 29 27 26 24 26 19 14 13 11 13 17 15 11 13 24 23 33 16 18 25 18 25 23 22 22 24 26 31 31 30 27 24 21 18 15 12 9 7 6 6 6 8 9 10 11 12
24 25 32 34 33 30 21 19 17 19 17 12 16 14 8 10 8 19 2 16 8 17 32 20 31 28 26 27 28 28 28 31 30 28 24 21 18 14 11 7 5 4 5 7 9 11 12 13 14
24 33 39 36 34 32 26 23 19 17 22 27 10 19 17 13 11 5 2 5 10 17 30 24 35 34 31 30 31 31 30 30 29 27 25 21 18 14 10 6 3 2 4 6 8 11 12 14 15
28 36 40 32 31 32 31 28 22 23 20 28 35 20 20 13 17 16 3 3 4 15 24 25 37 36 36 34 33 32 32 31 30 28 25 22 18 14 11 7 4 0 3 5 8 10 12 14 16
28 41 32 29 28 31 32 32 26 23 25 21 26 29 23 16 17 21 3 10 12 27 20 28 33 39 39 37 36 36 35 34 32 29 25 22 18 15 12 9 5 3 5 6 8 10 12 12 16
30 31 32 31 29 30 32 31 35 29 22 22 23 29 27 30 19 21 9 14 18 28 24 28 31 39 41 41 39 38 37 35 32 28 25 22 19 16 13 10 7 7 7 8 7 7 9 9 16
29 29 29 31 29 29 31 32 28 28 24 23 20 22 28 34 31 29 30 26 26 23 31 22 31 33 42 44 41 40 39 36 33 30 27 23 20 17 14 11 10 9 8 7 6 7 10 10 16
22 26 29 28 30 27 30 30 27 35 28 27 25 22 26 24 37 33 29 23 33 22 18 27 31 38 39 44 48 48 43 39 37 33 30 26 22 19 16 14 13 11 11 11 7 11 16 15 16
20 23 24 26 26 31 27 31 36 32 29 31 33 32 29 33 26 24 27 26 30 36 20 21 39 40 42 40 46 43 45 43 41 38 34 30 26 23 21 18 16 15 13 12 13 17 20 22 16
15 20 27 28 26 28 26 38 29 27 29 33 33 31 28 24 24 25 26 27 30 42 38 25 23 29 45 40 43 50 47 41 42 43 38 33 29 26 23 22 19 18 16 18 20 20 22 27 20
20 25 25 26 25 28 32 35 27 25 26 29 25 31 32 27 31 28 27 30 34 36 35 31 22 24 29 41 38 47 42 37 49 45 39 36 35 30 28 24 21 20 18 23 19 20 23 22 18
21 26 25 24 24 20 21 26 25 24 20 22 24 22 23 26 23 21 27 29 38 40 35 36 27 23 23 39 44 50 49 49 52 42 39 36 40 37 31 28 25 21 21 25 21 28 29 28 27
23 28 22 21 19 15 19 20 22 23 25 24 23 22 23 25 20 24 22 30 40 44 33 37 34 36 31 28 42 55 34 33 42 41 40 40 43 41 30 29 28 24 30 36 31 35 31 31 30
18 18 24 25 18 17 20 25 26 27 29 30 29 28 25 23 22 24 31 31 42 40 28 27 30 32 35 34 31 51 67 51 29 43 40 38 38 44 44 32 29 38 34 34 34 38 43 38 33
20 21 22 23 22 20 19 27 30 34 35 36 33 31 28 26 25 26 27 29 36 37 30 27 29 28 29 34 34 35 54 65 43 38 47 48 41 40 51 47 48 36 38 40 38 34 42 40 33
23 17 19 20 24 22 20 25 23 21 17 29 26 29 27 25 24 24 26 27 29 31 34 32 35 39 31 34 33 37 33 48 74 59 49 40 38 43 55 50 50 48 37 43 46 43 43 37 32
20 16 18 17 19 21 27 24 31 23 25 22 20 17 19 19 22 25 29 34 30 26 35 33 30 35 35 48 41 35 39 34 33 56 71 58 53 49 46 56 57 51 54 50 51 49 39 34 30
17 18 18 22 21 22 32 30 33 28 25 21 21 18 14 13 14 16 17 22 22 28 30 24 28 32 34 35 46 42 37 38 38 34 32 60 59 42 47 60 61 61 62 60 53 48 50 32 31
24 23 17 19 18 17 29 33 30 19 5 20 22 15 12 13 13 16 18 19 13 17 14 17 19 30 38 43 47 50 48 46 34 36 33 27 34 48 49 52 75 59 48 46 43 47 59 32 27
24 24 19 11 14 19 24 12 23 12 14 18 16 15 11 12 14 14 13 11 9 12 11 13 17 21 28 36 42 48 52 46 53 49 46 42 40 42 42 33 30 26 30 35 28 20 19 27 25
22 26 26 21 23 23 28 24 33 12 10 16 16 11 11 11 15 12 10 12 14 14 15 19 26 27 24 27 33 38 39 46 53 45 45 43 46 43 40 41 34 25 32 27 24 23 23 25 30
24 21 16 12 13 17 20 27 26 15 27 19 13 13 10 9 10 13 14 14 14 17 22 21 25 29 27 25 25 28 36 41 44 47 47 47 42 43 40 43 38 37 33 29 28 29 30 31 37
19 26 23 19 13 2 8 12 9 7 11 18 17 12 11 12 14 16 15 16 20 23 23 23 23 27 28 28 26 29 29 31 37 44 46 48 46 45 47 47 49 46 40 38 36 35 35 38 36
27 24 25 17 19 27 29 29 19 10 4 17 16 14 13 14 13 16 21 22 25 26 22 22 21 25 28 26 28 33 33 34 33 32 36 45 47 46 45 49 45 39 41 41 41 38 38 40 39

GFSSGP_700_spd_063.txt.gz
Wind_Speed
7 5 4 10 8 8 13 19 17 18 24 8 4 13 8 7 12 14 15 14 14 11 6 1 1 2 2 6 12 17 22 25 27 28 30 29 30 29 28 26 25 23 21 20 19 18 17 16 15
10 8 6 8 9 13 15 13 11 8 4 5 13 13 10 13 14 21 18 15 7 10 9 4 2 3 1 6 14 19 23 27 28 29 31 31 30 29 27 25 23 20 19 16 15 15 14 14 14
11 10 9 5 12 18 19 12 14 2 7 4 7 8 5 10 10 8 12 18 13 7 11 9 5 4 2 6 14 21 26 28 30 31 31 30 28 27 24 22 19 17 15 13 13 12 12 12 13
13 11 13 15 16 22 26 19 12 2 8 5 3 3 6 8 5 4 12 10 18 7 9 11 9 7 6 7 12 23 26 29 30 30 30 28 26 24 21 19 17 15 12 11 11 11 12 12 13
14 15 15 15 18 20 22 16 18 4 6 8 4 2 6 4 4 10 15 12 13 11 7 12 12 11 10 9 14 20 27 29 29 29 28 27 24 22 19 16 14 12 10 10 9 9 11 12 13
22 15 18 19 20 18 15 14 22 14 3 5 2 1 4 2 4 9 19 19 21 18 9 10 16 15 14 12 17 21 27 29 30 30 28 26 23 21 18 15 13 10 9 9 8 9 11 12 14
28 23 26 25 24 22 23 18 29 26 24 13 8 10 9 6 6 9 13 6 19 27 20 12 16 19 19 19 19 23 25 30 31 31 29 26 22 20 17 15 12 10 8 7 8 9 11 12 13
30 26 29 30 30 31 21 20 24 29 22 25 19 14 13 8 9 12 11 2 14 23 22 18 16 23 24 24 25 26 27 27 31 31 29 26 22 19 17 14 12 9 6 6 7 9 11 12 13
25 29 36 33 31 30 29 25 24 24 29 19 28 25 16 18 13 9 9 6 14 15 21 19 18 27 29 28 29 30 30 29 29 30 28 25 22 19 16 14 11 8 5 5 6 8 10 11 13
29 33 39 33 29 30 31 31 27 26 19 22 29 32 23 17 14 14 12 11 15 14 21 23 18 30 34 33 32 32 31 31 30 28 27 24 22 19 16 13 10 6 4 3 4 5 7 8 11
27 39 30 32 28 26 30 34 30 26 35 26 25 24 29 25 19 19 19 19 19 16 28 24 19 27 38 37 36 35 33 33 32 29 26 24 21 18 15 11 8 5 2 1 2 4 5 6 10
26 26 26 26 26 33 37 35 33 29 27 26 27 28 25 33 20 15 22 24 24 20 25 27 18 18 39 39 40 38 36 35 33 30 27 24 21 18 14 11 8 5 2 3 3 3 4 7 10
26 27 27 32 29 30 31 36 33 33 23 14 28 35 37 27 29 17 25 24 30 24 20 28 25 20 29 40 41 42 39 37 34 32 29 26 22 18 15 13 10 7 5 6 4 1 5 9 12
23 26 28 29 31 31 34 35 34 38 25 15 16 17 22 26 27 33 29 29 28 25 26 27 31 24 25 38 43 45 44 40 38 36 33 29 25 21 17 15 13 11 9 8 7 6 6 12 20
16 24 27 27 28 32 31 34 44 36 30 25 24 27 21 26 29 29 26 36 33 26 22 29 30 34 30 32 41 45 46 45 43 39 37 35 30 27 23 19 16 14 13 12 13 14 14 14 18
16 16 23 33 28 23 28 46 41 36 28 37 34 34 36 27 28 31 28 30 28 38 26 26 28 28 34 34 38 33 42 50 48 46 42 39 34 31 27 23 18 16 15 15 17 19 18 15 17
18 23 23 26 23 29 29 41 40 37 26 29 26 28 30 28 31 26 27 28 33 38 32 31 30 29 29 26 30 52 45 43 48 47 46 42 39 35 30 26 22 20 20 17 18 18 17 19 25
20 23 27 30 20 25 37 42 35 26 21 26 29 28 32 32 35 34 33 36 36 37 35 31 33 31 28 22 27 25 55 60 44 39 47 39 43 37 35 30 27 24 23 19 18 19 18 26 29
19 23 28 29 27 25 18 31 19 28 23 22 28 28 29 31 28 25 32 40 34 38 39 37 33 32 28 28 28 22 29 55 54 42 27 44 46 38 40 30 27 26 25 21 19 20 25 32 32
27 26 28 27 26 22 23 18 21 25 28 29 29 21 29 29 29 31 29 39 35 37 43 40 38 35 36 29 28 23 24 49 48 51 53 48 47 51 43 35 28 29 26 27 23 27 29 32 38
23 17 20 25 25 26 26 27 22 26 24 32 36 39 29 29 28 27 30 37 41 39 44 41 34 34 40 35 33 31 31 33 48 45 42 65 46 43 42 38 33 36 38 29 29 26 35 36 35
22 21 22 26 24 23 21 13 30 22 28 26 27 35 42 27 27 25 30 31 35 37 37 39 33 31 33 34 34 36 32 29 32 30 38 53 60 41 36 40 37 37 38 39 41 41 34 35 45
24 19 24 21 19 21 29 20 34 27 33 31 26 21 22 32 34 33 31 34 34 33 35 36 27 32 33 33 33 32 33 29 30 40 36 46 59 65 40 39 42 47 37 39 45 40 47 44 46
20 23 21 18 20 13 27 23 44 41 38 32 28 27 28 28 30 26 25 32 35 33 35 38 41 34 33 38 38 35 33 33 32 30 37 38 42 52 55 58 52 52 44 48 45 50 50 51 54
26 21 8 7 9 13 25 21 45 33 27 35 32 37 33 31 31 28 27 26 26 28 29 33 33 27 29 34 40 42 43 43 41 34 36 34 37 33 43 54 68 65 58 48 51 51 59 55 45
30 9 6 6 4 10 25 9 23 7 8 10 28 28 22 20 20 22 24 24 22 25 21 27 24 23 22 28 33 38 39 38 40 40 47 47 44 39 39 39 41 50 51 42 42 50 43 44 34
17 19 34 20 29 6 12 28 30 24 16 17 23 23 24 22 21 20 23 23 18 13 12 18 18 19 19 18 23 33 41 45 49 51 52 48 49 49 48 43 39 32 34 32 42 37 37 40 29
16 18 11 7 4 5 9 18 18 9 13 14 10 15 16 15 17 19 16 20 17 15 16 17 21 26 25 22 20 22 25 33 40 43 46 53 47 46 43 43 42 37 32 30 30 25 24 25 26
20 15 13 16 13 4 3 7 13 6 8 9 21 14 12 11 10 16 21 22 23 26 27 28 30 32 30 29 27 22 20 24 27 30 37 42 45 49 52 42 40 41 39 37 33 33 32 28 26
19 5 8 5 8 14 15 23 16 20 20 10 13 19 15 15 13 20 24 28 32 32 31 34 35 33 32 33 30 28 24 24 25 27 28 27 34 42 44 49 48 46 42 42 36 36 38 29 31

GFSSGP_700_spd_069.txt.gz
Wind_Speed
12 11 8 8 9 9 21 13 7 1 3 6 7 4 11 20 26 20 15 18 14 13 8 6 5 5 4 3 4 8 12 15 18 21 24 25 26 26 26 25 25 24 23 21 20 20 20 19 19
16 13 11 9 11 13 17 14 11 5 6 5 3 3 12 14 23 19 24 23 18 14 9 6 4 5 5 5 6 10 14 19 21 24 25 26 26 26 26 25 24 23 21 19 19 19 19 18 18
21 17 15 10 15 21 10 9 11 8 8 3 2 3 7 11 15 15 23 19 16 13 11 8 7 6 7 7 9 12 16 20 23 25 27 27 27 27 26 25 23 21 19 18 17 17 17 17 17
21 20 19 19 19 21 23 15 10 10 8 8 5 7 11 11 7 13 14 15 14 11 12 11 10 9 9 9 11 15 19 21 23 26 28 28 27 27 26 24 22 20 18 17 16 16 17 17 17
24 22 23 21 28 26 20 19 8 10 3 9 6 7 12 13 11 14 13 7 7 4 9 11 10 10 10 10 13 17 20 24 26 27 27 28 28 26 24 23 21 18 17 16 16 15 15 15 15
27 26 24 28 30 29 26 17 16 13 6 11 9 9 5 13 12 10 10 10 6 7 5 11 11 11 11 12 12 17 21 23 28 28 28 29 28 26 24 22 19 17 15 15 14 13 11 11 11
29 28 34 32 31 33 31 22 17 19 12 9 15 15 12 12 13 15 15 13 12 10 11 8 12 13 14 14 16 16 20 23 25 28 28 29 27 25 23 20 18 16 14 13 12 11 10 9 7
29 30 35 36 34 37 29 26 23 16 16 4 6 15 14 12 13 13 16 14 13 12 14 16 12 14 16 17 18 22 23 23 22 23 28 29 27 24 22 20 17 15 12 11 11 10 9 8 7
29 34 40 39 37 37 29 28 24 20 18 7 7 13 19 17 16 15 15 15 15 15 14 18 18 16 18 20 21 25 28 30 28 26 26 28 27 24 22 20 17 14 11 10 10 8 7 6 5
30 39 42 39 36 37 32 28 26 27 20 16 13 9 13 19 20 18 17 17 13 14 13 17 20 20 22 24 27 25 29 30 31 29 29 28 26 24 22 20 17 14 11 9 8 7 5 3 3
29 39 36 35 32 33 34 32 29 29 29 17 15 11 16 17 23 20 19 14 22 15 15 16 20 21 19 24 30 31 30 32 33 32 31 29 27 25 22 20 17 14 11 9 7 7 5 3 1
29 29 30 31 29 29 31 29 31 31 35 26 19 15 20 23 24 21 22 22 19 22 19 18 18 23 21 20 28 35 34 33 35 35 34 32 29 26 22 19 16 14 12 9 8 7 7 4 2
22 24 22 22 24 24 24 29 29 34 29 27 21 20 22 24 24 24 22 22 23 23 26 24 21 22 26 22 25 36 40 39 38 37 36 34 31 27 24 21 19 17 14 12 10 9 9 6 2
16 19 22 23 24 24 26 28 26 34 25 23 20 18 27 30 26 24 25 26 26 23 22 22 16 21 26 27 25 32 41 42 41 40 38 37 34 31 27 25 21 19 17 16 14 12 12 9 5
22 25 26 24 23 25 22 29 34 31 27 24 22 24 25 26 25 31 30 26 29 28 28 24 25 22 20 26 26 28 40 45 45 43 41 40 36 32 31 29 25 22 20 19 17 15 16 15 13
21 23 28 26 24 23 21 40 32 30 25 25 27 29 28 32 28 28 33 25 27 30 35 31 32 30 28 27 27 29 34 42 46 46 44 43 40 39 36 33 29 27 24 22 20 18 19 20 19
24 27 29 28 24 20 21 37 34 33 32 34 35 34 36 37 37 40 34 39 34 32 33 33 35 37 33 31 30 30 31 37 43 48 47 45 41 43 42 38 34 32 27 26 24 23 23 23 22
18 20 22 23 22 21 22 32 23 23 36 40 39 39 38 40 43 43 40 42 41 39 35 32 34 31 30 31 33 35 35 36 40 43 39 43 45 48 49 43 38 36 31 30 30 28 27 25 26
20 25 29 23 13 27 27 32 29 25 26 31 39 42 35 33 38 35 37 40 42 43 41 41 43 36 30 33 36 36 36 35 33 28 58 32 37 43 48 42 40 38 37 33 31 30 28 26 27
23 28 32 30 22 16 22 30 30 27 28 29 30 35 32 29 32 34 36 38 40 39 40 38 38 39 35 30 30 37 37 38 37 32 24 38 56 30 33 50 56 42 33 29 27 28 30 28 25
20 24 27 30 23 25 26 34 36 33 32 31 26 22 24 27 28 30 28 25 28 33 36 36 38 37 38 37 33 38 42 40 38 40 35 28 31 31 47 45 45 55 50 37 31 27 32 33 28
25 25 27 23 22 26 21 21 41 37 30 30 29 24 26 28 27 26 26 32 34 34 35 37 38 36 36 36 35 37 41 40 43 41 38 36 36 37 39 45 55 59 69 60 60 35 32 32 35
29 28 28 29 29 25 26 12 40 23 27 34 34 34 32 31 33 31 35 34 35 39 34 33 31 31 36 37 39 42 43 41 45 45 41 39 40 43 41 38 34 48 60 67 72 62 36 33 34
31 29 32 27 27 10 32 17 37 42 45 42 35 32 32 39 37 37 38 39 39 40 36 34 29 28 30 37 39 40 42 45 45 47 49 46 42 43 43 43 41 43 43 50 54 53 62 53 40
28 29 9 7 7 14 17 14 40 41 24 31 33 39 38 35 47 45 42 44 42 42 40 37 33 36 36 34 34 34 36 39 44 47 49 49 43 40 37 39 38 38 35 37 46 54 50 49 53
22 19 7 7 5 9 14 17 53 41 28 29 32 35 33 34 40 50 54 45 37 40 40 41 41 39 38 39 39 40 40 40 43 43 43 43 47 46 44 44 45 45 41 43 38 40 49 47 53
22 20 18 10 21 6 12 29 44 37 26 15 24 22 24 20 30 31 35 32 34 40 43 42 41 42 42 40 41 41 43 38 37 45 47 42 42 46 48 49 48 44 44 43 38 33 30 35 40
22 19 8 8 4 5 7 11 17 19 19 11 14 18 9 7 11 14 19 24 33 37 37 39 39 36 35 38 29 19 19 22 29 36 44 46 44 40 40 44 43 39 42 40 38 36 37 39 33
13 16 10 8 9 3 3 6 4 1 1 5 8 14 11 11 13 20 22 23 23 24 26 26 28 28 28 19 17 14 16 13 17 23 29 37 42 43 45 43 43 43 40 40 36 37 39 38 38
13 13 12 6 5 8 6 9 10 16 13 7 4 12 26 22 13 20 27 30 31 30 28 27 24 24 19 17 16 15 14 13 10 14 19 20 25 32 39 44 48 50 47 45 47 44 38 38 47

GFSSGP_700_spd_072.txt.gz
Wind_Speed
13 12 12 9 9 10 12 9 5 5 2 1 4 1 8 12 11 8 15 21 15 12 8 8 7 6 7 6 4 4 7 11 16 21 22 22 24 25 24 24 25 24 23 22 21 21 21 21 22
16 14 13 12 10 13 12 13 6 2 1 2 4 3 3 10 12 15 12 20 19 14 10 9 7 6 8 7 6 8 11 13 17 20 22 25 26 25 25 25 23 22 21 21 20 20 20 21 23
21 19 16 12 16 20 6 8 14 8 6 4 5 6 5 11 14 19 14 19 18 16 11 9 8 5 6 8 8 10 13 16 20 22 23 25 26 26 27 25 23 21 20 20 20 20 20 20 21
23 22 21 20 20 18 18 9 10 7 6 7 8 6 9 7 13 12 18 19 15 14 12 9 7 6 6 7 8 10 14 17 20 22 24 25 25 27 25 24 22 20 19 19 19 18 18 18 17
25 25 26 23 30 26 19 19 15 12 3 7 9 2 7 11 11 15 17 15 11 12 13 11 10 8 8 9 9 10 14 17 20 22 24 26 27 27 24 22 20 19 18 18 17 16 16 15 15
27 28 25 30 34 30 27 19 19 16 7 4 4 5 4 8 8 12 13 12 10 6 9 12 13 13 11 10 11 11 14 16 19 22 22 25 28 26 24 21 20 18 17 16 14 12 11 12 11
30 30 34 33 33 33 33 27 22 17 10 6 9 8 5 5 10 10 10 10 10 9 9 10 13 15 15 13 13 14 17 18 20 20 22 26 27 26 23 21 19 17 15 13 11 10 8 8 7
30 30 35 36 35 36 28 31 27 21 20 7 7 8 15 11 17 15 15 15 11 9 11 12 11 15 17 18 18 18 20 22 22 23 23 27 27 26 23 21 18 17 14 12 10 8 8 6 5
29 31 38 37 33 31 28 29 29 27 25 16 10 13 15 16 17 18 17 13 13 14 10 11 16 14 17 20 22 24 25 26 25 25 25 27 27 26 24 21 19 17 15 13 11 9 7 5 3
29 37 38 36 31 31 32 32 28 28 30 23 11 5 15 21 23 22 21 20 18 15 15 12 14 19 20 20 23 25 28 30 30 29 27 28 27 25 23 22 19 17 15 13 11 9 7 4 1
29 37 33 32 30 29 31 34 29 28 37 29 20 12 3 6 27 24 22 18 14 18 14 12 13 17 21 23 25 27 29 31 33 33 30 30 29 28 25 22 18 15 14 12 12 10 9 7 3
25 26 25 26 25 27 29 27 28 30 37 33 28 19 15 11 23 24 25 22 21 18 19 15 13 15 19 20 25 30 32 34 35 35 33 32 32 29 26 22 20 17 15 13 11 11 10 9 5
22 21 21 20 20 21 23 26 26 36 30 33 34 29 21 17 21 25 24 24 24 21 20 18 18 20 20 25 21 26 32 36 38 37 35 34 33 30 26 23 21 19 17 15 13 12 13 11 8
15 16 17 19 20 20 22 25 25 30 22 27 33 34 26 22 20 23 24 31 30 24 25 25 24 24 24 27 25 23 25 35 40 40 38 36 34 32 29 25 25 22 20 18 17 15 15 14 12
17 19 20 20 19 20 20 28 32 26 25 23 28 28 30 22 21 23 25 28 26 24 25 24 22 22 25 24 26 25 28 29 39 42 40 39 38 35 33 29 29 26 25 22 20 19 17 19 18
18 21 21 17 13 17 21 36 26 25 27 29 25 27 28 21 21 23 29 31 29 26 26 26 25 24 24 22 24 31 41 23 35 43 43 43 41 37 34 31 29 26 27 25 24 22 21 21 24
17 16 16 14 11 13 20 32 30 26 27 31 30 30 29 31 29 30 27 26 28 26 26 30 30 29 28 29 31 30 29 30 29 39 44 46 44 41 40 33 32 32 32 30 28 26 25 24 25
13 15 18 18 14 13 21 32 28 24 25 33 30 31 36 39 38 35 34 34 30 30 29 29 32 29 30 33 34 34 33 35 34 34 41 44 46 46 40 43 37 37 33 39 32 30 32 27 30
14 19 22 19 14 25 24 30 26 21 27 30 31 28 31 39 43 42 42 39 39 36 36 36 37 36 31 32 32 29 35 36 37 38 38 40 43 44 43 42 47 42 43 35 39 34 38 29 33
15 19 19 21 15 24 26 33 26 24 24 26 30 31 32 34 37 41 42 44 42 45 46 43 42 42 39 37 35 34 34 35 37 39 36 37 44 47 54 47 40 42 45 40 38 44 39 24 27
14 19 21 24 26 24 24 37 32 31 31 31 31 34 34 31 29 34 35 41 44 41 43 45 47 45 42 37 34 34 32 33 34 36 35 32 31 40 50 46 46 42 44 53 46 45 39 32 29
22 22 23 25 26 24 27 31 36 34 35 36 37 34 33 28 22 23 28 31 35 36 39 42 40 40 40 38 37 35 33 34 34 36 35 33 35 32 30 42 60 53 39 37 40 46 54 49 41
23 23 27 28 29 31 26 21 37 29 37 40 39 33 32 30 32 29 27 31 35 34 31 31 32 36 38 38 36 35 33 35 34 36 37 36 38 37 36 36 42 53 55 65 45 38 52 66 53
28 30 29 35 28 17 29 25 47 51 49 46 37 32 32 34 35 38 35 32 32 35 36 36 33 31 31 33 32 32 32 36 38 40 41 40 40 39 36 39 42 44 40 43 30 31 45 44 46
20 23 9 5 3 10 21 19 36 51 29 32 30 36 37 37 36 36 45 42 40 37 38 38 37 35 33 31 28 29 32 37 40 38 37 38 40 40 41 42 43 45 44 47 37 31 36 37 42
21 18 8 6 6 16 25 13 44 33 25 23 24 26 34 39 39 39 45 50 47 43 41 41 37 40 37 34 33 33 33 33 34 35 35 38 44 43 45 48 46 45 39 37 32 41 38 35 34
11 14 19 18 24 11 14 31 41 29 13 18 26 17 25 28 27 32 37 44 50 52 48 44 40 41 40 39 37 37 39 39 39 40 41 39 42 42 39 42 44 44 40 36 36 38 37 37 37
18 15 9 7 4 6 5 9 16 17 8 10 10 10 4 14 24 26 25 37 41 49 52 44 40 43 44 40 38 38 37 37 40 45 44 39 36 41 42 37 39 44 45 44 43 40 41 42 38
13 11 8 8 9 4 4 4 10 10 10 11 4 9 11 14 13 18 14 11 34 40 39 39 42 42 36 35 33 33 35 34 28 24 23 22 28 32 35 39 35 32 32 37 40 42 40 38 39
10 11 9 4 5 12 12 20 17 15 17 20 23 21 18 20 23 17 11 9 11 19 26 32 33 33 31 22 16 19 22 19 19 13 15 18 19 24 27 32 36 39 38 36 36 36 37 39 43

GFSSGP_700_spd_075.txt.gz
Wind_Speed
16 15 13 10 7 8 9 9 7 4 4 6 7 6 10 9 9 5 9 17 16 12 10 9 7 6 7 9 8 7 9 10 15 18 21 21 23 24 23 24 25 24 23 22 22 22 22 23 24
16 15 13 11 10 10 8 9 11 7 6 10 9 6 5 8 9 11 7 8 18 15 11 9 8 7 6 8 8 9 11 13 17 20 22 23 24 23 25 25 24 23 22 21 22 22 23 23 22
20 17 15 10 15 16 3 10 14 7 6 8 10 7 6 7 8 9 8 9 18 15 13 9 8 7 6 7 7 9 12 15 19 21 22 23 24 24 26 24 23 21 20 20 21 21 20 19 19
23 22 20 18 17 19 14 11 13 9 5 7 9 4 7 7 10 12 12 15 18 15 13 11 9 7 7 7 8 9 12 16 18 19 22 24 24 26 25 23 22 20 20 19 19 18 17 16 16
28 27 22 19 26 24 14 17 14 9 4 1 10 4 5 2 7 14 16 18 16 14 14 14 13 12 11 9 9 10 13 15 18 20 22 24 26 26 24 22 20 20 19 18 17 16 15 13 12
28 30 24 27 30 28 25 19 18 16 10 6 7 9 3 1 5 14 13 15 15 15 15 15 14 13 14 14 13 14 15 17 18 21 24 25 28 26 24 22 20 18 17 16 14 13 11 10 9
31 31 29 27 32 32 30 26 24 21 16 10 14 12 7 7 8 10 12 12 12 11 13 14 14 15 15 16 18 18 19 20 20 21 23 26 28 26 24 21 19 18 16 14 12 10 9 6 5
30 30 26 34 28 34 28 25 28 27 23 14 14 16 13 12 13 14 11 11 10 11 11 10 14 15 15 16 19 21 22 23 24 24 24 27 28 27 24 22 20 18 16 13 11 9 8 5 3
28 30 25 29 30 28 20 21 32 34 31 24 16 19 18 17 16 18 13 13 12 12 9 10 12 13 16 17 18 20 25 26 27 28 29 30 29 27 25 23 21 18 15 13 11 9 7 5 2
28 32 30 32 28 26 24 26 28 32 32 32 24 15 21 22 20 16 16 16 16 14 12 11 11 15 16 18 19 21 24 25 28 31 32 32 31 28 25 23 21 19 16 14 11 10 8 5 3
28 31 28 28 25 25 26 28 27 32 37 32 28 22 18 25 27 27 22 21 19 18 17 15 12 13 18 21 22 22 26 28 29 31 32 33 33 31 29 26 23 20 17 15 13 12 10 9 6
24 23 21 21 21 23 26 26 30 31 31 30 32 32 23 26 31 32 28 26 24 21 19 19 16 15 15 20 24 26 28 29 31 33 33 34 35 33 29 26 23 21 18 16 15 14 12 11 10
18 16 17 16 18 19 20 24 24 30 26 27 31 35 32 27 28 35 32 29 29 26 24 19 19 20 18 17 20 24 27 31 33 35 36 36 36 34 31 27 25 22 20 18 16 15 14 13 12
9 8 11 14 17 20 23 24 23 27 18 21 27 32 36 32 27 28 35 28 29 31 26 22 21 21 21 21 20 23 24 29 34 36 38 37 36 34 32 29 27 24 22 21 19 17 16 15 15
15 16 17 16 16 19 20 29 28 20 20 23 25 26 27 34 31 29 32 29 30 30 30 29 26 25 24 27 26 28 27 28 35 39 41 39 38 36 34 33 30 26 26 24 23 20 20 18 19
10 13 11 9 11 13 16 32 22 20 22 23 26 27 23 26 31 30 29 29 24 30 34 30 28 27 25 26 29 33 32 30 29 36 42 42 40 39 38 36 33 32 28 30 26 23 22 21 21
10 7 9 10 10 15 20 24 26 23 25 27 27 28 28 27 30 28 24 25 27 29 33 35 33 29 27 27 30 31 30 28 28 33 40 39 43 42 42 40 35 34 32 30 26 24 25 24 26
3 4 7 9 5 13 22 29 28 27 29 31 29 30 31 34 34 31 28 26 30 35 37 34 33 32 30 29 30 30 29 30 31 30 29 36 45 45 44 42 39 38 36 31 33 32 32 29 30
7 9 10 8 6 20 19 25 26 24 30 30 31 29 32 36 37 39 37 34 34 37 35 37 36 36 34 32 33 37 38 34 36 33 33 32 38 44 41 43 44 40 43 44 33 35 36 30 34
9 12 11 16 13 20 23 29 26 23 27 29 33 34 33 34 37 38 41 44 41 39 37 37 40 38 35 35 34 32 32 31 31 33 34 33 31 42 46 45 39 40 39 44 47 44 47 35 37
11 12 15 17 22 25 28 33 24 26 31 29 33 36 38 35 33 32 35 38 44 46 45 43 43 43 40 39 39 38 36 36 35 35 35 35 34 33 42 48 43 45 47 52 48 46 53 47 45
11 13 18 20 17 20 19 27 32 27 37 35 33 29 28 32 35 34 30 30 41 44 44 45 44 45 46 46 43 42 40 35 31 32 33 32 32 34 38 36 45 48 50 49 47 57 49 52 44
14 20 23 24 22 25 23 29 32 24 28 33 36 35 35 33 34 35 33 29 36 39 41 49 45 44 44 42 45 41 39 34 29 29 31 31 33 34 36 37 34 37 43 45 45 46 46 54 55
23 22 23 28 22 17 26 27 18 23 25 25 27 19 17 23 27 27 33 36 36 37 39 39 41 43 45 47 45 42 39 36 32 34 36 35 34 38 37 37 41 39 41 37 39 50 49 52 50
16 12 13 10 9 12 13 21 27 31 27 29 31 29 32 35 35 39 36 32 39 41 41 44 43 42 39 36 35 36 37 37 37 36 36 38 37 38 37 39 40 41 41 45 45 44 46 49 43
13 11 8 12 14 21 26 14 17 22 26 29 35 33 25 25 29 29 31 36 37 45 45 43 44 43 42 39 39 38 38 35 34 34 33 35 36 36 36 38 40 40 43 45 43 42 39 37 32
10 7 11 14 22 17 15 23 26 6 11 6 8 2 8 15 15 15 18 24 30 35 49 51 46 43 42 42 42 40 39 36 36 34 32 32 32 32 32 36 42 46 45 45 45 39 34 30 24
13 13 5 5 5 9 11 24 19 16 15 6 5 11 11 11 14 15 20 26 29 31 38 52 54 48 44 43 43 42 41 40 40 39 38 38 38 39 39 38 40 39 39 39 40 38 33 30 31
13 10 10 9 8 5 8 10 13 16 27 25 28 30 24 25 18 16 17 19 27 24 27 45 52 55 50 44 43 45 43 42 40 39 38 39 41 42 42 43 43 40 38 33 33 35 38 38 37
16 12 13 10 6 8 7 30 21 14 11 21 34 29 33 28 27 27 20 19 19 18 19 21 38 45 50 46 45 40 37 37 36 36 37 35 30 27 27 30 30 30 31 29 28 28 31 33 34